Location: Staunton
(38.1490°N, 79.0720°W)
Time: 13:51:05
(UTC-04:00)

ISS - Pass Details

Date: 19 July 2019
Orbit: 409 x 418 km, 51.6° (Epoch: 20 July)

Event Time Altitude Azimuth Distance (km) Brightness Sun altitude
Rises 22:23:47 0° 266° (W) 2,347 0.6 -17.7°
Reaches altitude 10° 22:26:14 10° 283° (WNW) 1,485 -0.1 -18.0°
Maximum altitude 22:28:48 20° 334° (NNW) 1,017 -0.9 -18.4°
Drops below altitude 10° 22:31:22 10° 24° (NNE) 1,485 -0.7 -18.7°
Sets 22:33:50 0° 42° (NE) 2,347 0.1 -19.0°
